Flag for Taiwan Weather past 2 weeks in Kaohsiung, Taiwan

Now
81 °F

Passing clouds.


Feels Like: 87 °F
Forecast: 78 / 91 °F
Wind: 3 mph from East

Location: Kaohsiung International Airport

Current Time: Sep 1, 2015 at 11:12:11 PM

Latest Report: Sep 1, 2015 at 10:30 PM


Visibility: N/A

Pressure: 29.89 "Hg

Humidity: 89%

Dew point: 77 °F

Location of KaohsiungLocation

Historic Weather in Kaohsiung — Graph

°F

Kaohsiung temperature yesterday

Maximum temperature yesterday: 84 °F (at 9:00 AM)
Minimum temperature yesterday: 75 °F (at 1:00 AM)
Average temperature yesterday: 78 °F

Past Weeks' High & Low Weather Summary

 TemperatureHumidityPressure
High93 °F (Aug 24, 3:30 PM)100% (Aug 19, 5:00 AM)29.89 "Hg (Aug 19, 5:00 AM)
Low73 °F (Aug 29, 3:49 AM)56% (Aug 24, 3:30 PM)29.30 "Hg (Aug 23, 3:00 AM)
Average82 °F88%29.70 "Hg
* Reported Aug 17 10:00 PM — Sep 1 10:00 PM, Kaohsiung, Weather by CustomWeather, © 2015

Note: Actual official high and low records may vary slightly from our data, if they occured in-between our weather recording intervals... More about our weather records

Advertising

Kaohsiung weather history for previous 24 hours

 ConditionsComfort  
Time TempWeatherWind HumidityBarometerVisibility
10:00 PM
Tue, Sep 1
81 °FPassing clouds.3 mph89%29.89 "HgN/A
9:30 PM81 °FPassing clouds.3 mph89%29.89 "HgN/A
9:00 PM81 °FPassing clouds.3 mph94%29.86 "HgN/A
8:30 PM82 °FPassing clouds.3 mph84%29.86 "HgN/A
8:00 PM82 °FPassing clouds.6 mph84%29.86 "HgN/A
7:30 PM82 °FPartly cloudy.5 mph89%29.83 "HgN/A
7:00 PM82 °FPartly cloudy.6 mph89%29.83 "HgN/A
6:30 PM84 °FPartly cloudy.3 mph84%29.83 "HgN/A
6:00 PM84 °FBroken clouds.6 mph84%29.83 "HgN/A
5:30 PM84 °FBroken clouds.7 mph84%29.80 "HgN/A
5:00 PM86 °FBroken clouds.7 mph79%29.80 "HgN/A
4:30 PM86 °FBroken clouds.8 mph75%29.80 "HgN/A
4:00 PM86 °FBroken clouds.8 mph79%29.80 "HgN/A
3:30 PM86 °FBroken clouds.9 mph79%29.80 "HgN/A
3:00 PM86 °FBroken clouds.9 mph79%29.80 "HgN/A
2:30 PM86 °FBroken clouds.12 mph79%29.80 "HgN/A
2:00 PM86 °FBroken clouds.12 mph79%29.80 "HgN/A
1:30 PM88 °FBroken clouds.10 mph75%29.80 "HgN/A
1:00 PM88 °FBroken clouds.9 mph66%29.83 "HgN/A
12:30 PM88 °FBroken clouds.12 mph70%29.83 "HgN/A
11:30 AM90 °FPartly sunny.9 mph67%29.83 "HgN/A
11:00 AM88 °FPartly sunny.9 mph62%29.83 "HgN/A
10:30 AM88 °FPartly sunny.7 mph66%29.80 "HgN/A
10:00 AM88 °FPartly sunny.5 mph66%29.80 "HgN/A
9:30 AM86 °FPartly sunny.3 mph75%29.80 "HgN/A
9:00 AM84 °FPartly sunny.5 mph79%29.83 "HgN/A
8:30 AM84 °FPartly sunny.6 mph74%29.83 "HgN/A
8:00 AM82 °FBroken clouds.6 mph79%29.83 "HgN/A
7:30 AM81 °FBroken clouds.5 mph84%29.83 "HgN/A
7:00 AM79 °FBroken clouds.2 mph89%29.83 "HgN/A
6:30 AM75 °FBroken clouds.3 mph100%29.80 "HgN/A
6:00 AM75 °FBroken clouds.1 mph100%29.80 "HgN/A
5:00 AM75 °FPartly cloudy.3 mph100%29.80 "HgN/A
4:00 AM75 °FPartly cloudy.5 mph100%29.80 "HgN/A
3:00 AM75 °FPartly cloudy.6 mph100%29.80 "HgN/A
2:00 AM77 °FPartly cloudy.1 mph100%29.80 "HgN/A
1:00 AM77 °FPartly cloudy.2 mph100%29.83 "HgN/A
12:00 AM77 °FSprinkles. Passing clouds.6 mph100%29.83 "Hg5 mi
11:00 PM
Mon, Aug 31
77 °FSprinkles. Mostly cloudy.5 mph100%29.83 "Hg5 mi
Weather by CustomWeather, © 2015

See weather overviewHow to use our weather pages